Location: Cahas Mountain Overlook
(37.0833°N, 80.1000°W)
Time: 13:46:26
(UTC-05:00)

Courier 1B - Pass Details

Date: 12 December 2023
Orbit: 962 x 1209 km, 28.3° (Epoch: 29 February)

Event Time Altitude Azimuth Distance (km) Brightness Sun altitude
Rises 12:39:21 0° 257° (WSW) 3,735 10.8 29.5°
Reaches altitude 10° 12:44:49 10° 222° (SW) 2,726 10.9 29.4°
Maximum altitude 12:46:09 11° 210° (SSW) 2,669 11.1 29.4°
Drops below altitude 10° 12:47:28 10° 198° (SSW) 2,705 11.4 29.3°
Sets 12:52:48 0° 161° (SSE) 3,624 11.4 29.1°
